Weather History for Cut Bank, MT

Change the Weather History Date:

Tuesday, March 19, 2013

  Actual Average Record
Temperature  
Mean Temperature 24 °F 32 °F  
Max Temperature 40 °F 44 °F 71 °F (1928)
Min Temperature 8 °F 21 °F -14 °F (1913)
Degree Days  
Heating Degree Days 41 33  
Month to date heating degree days 679 676  
Since 1 July heating degree days 6418 6736  
Cooling Degree Days 0 0  
Month to date cooling degree days 0 0  
Year to date cooling degree days 0 0  
Moisture  
Dew Point 11 °F    
Average Humidity 60    
Maximum Humidity 92    
Minimum Humidity 27    
Precipitation  
Precipitation 0.00 in 0.01 in 0.59 in (1987)
Month to date precipitation 0.02 0.27  
Year to date precipitation 0.75 0.68  
Snow  
Snow 0.00 in - - ()
Snow Depth 2.00 in    
Sea Level Pressure  
Sea Level Pressure 30.19 in    
Wind  
Wind Speed 6 mph (WSW)    
Max Wind Speed 12 mph    
Max Gust Speed 15 mph    
Visibility 8 miles    
Events      
T = Trace of Precipitation, MM = Missing Value Source: NWS Daily Summary

Daily Weather History Graph

Daily Weather History Graph

Search for Another Location

Airport:

Trip Planner

Search our weather history database for the weather conditions in past years. The results will help you decide how hot, cold, wet, or windy it might be!

Date:

Astronomy

Mar. 19, 2013 Rise Set
Actual Time 7:33 AM MDT 7:41 PM MDT
Civil Twilight 7:02 AM MDT 8:12 PM MDT
Nautical Twilight 6:25 AM MDT 8:49 PM MDT
Astronomical Twilight 5:47 AM MDT 9:27 PM MDT
Moon 12:00 PM MDT (3/19) 2:58 AM MDT (3/19)
Length of Visible Light 13h 10m
Length of Day
12h 07m
Waxing Crescent, 50% of the Moon is Illuminated
Mar 19
Waxing Crescent
Mar 27
Full
Apr 2
Last Quarter
Apr 10
New
Apr 18
First Quarter

Hourly Weather History & Observations

Time (MDT) Temp. Windchill Dew Point Humidity Pressure Visibility Wind Dir Wind Speed Gust Speed Precip Events Conditions
12:05 AM 17.6 °F 5.7 °F 14.0 °F 86% 30.00 in 1.8 mi North 10.4 mph - N/A   Overcast
12:20 AM 17.6 °F 7.3 °F 14.0 °F 86% 30.01 in 2.5 mi NNW 8.1 mph - N/A   Overcast
12:28 AM 17.6 °F 6.4 °F 14.0 °F 86% 30.02 in 3.0 mi NNW 9.2 mph - N/A   Overcast
12:56 AM 17.1 °F 7.6 °F 14.0 °F 88% 30.15 in 2.5 mi NW 6.9 mph - N/A   Overcast
1:09 AM 15.8 °F 7.2 °F 12.2 °F 86% 30.03 in 3.0 mi NW 5.8 mph - N/A   Overcast
1:49 AM 12.2 °F 1.7 °F 10.4 °F 92% 30.04 in 6.0 mi West 6.9 mph - N/A   Mostly Cloudy
1:56 AM 12.9 °F 0.7 °F 10.0 °F 88% 30.17 in 7.0 mi WNW 9.2 mph - N/A   Scattered Clouds
2:56 AM 16.0 °F 7.4 °F 12.9 °F 88% 30.18 in 5.0 mi WNW 5.8 mph - N/A   Overcast
3:56 AM 14.0 °F 6.5 °F 10.9 °F 88% 30.20 in 10.0 mi West 4.6 mph - N/A   Overcast
4:56 AM 12.0 °F - 9.0 °F 88% 30.22 in 10.0 mi Calm Calm - N/A   Overcast
5:56 AM 9.0 °F 2.4 °F 7.0 °F 92% 30.24 in 10.0 mi WSW 3.5 mph - N/A   Scattered Clouds
6:56 AM 9.0 °F -0.9 °F 7.0 °F 92% 30.26 in 10.0 mi SSW 5.8 mph - N/A   Clear
7:56 AM 9.0 °F -0.9 °F 6.1 °F 88% 30.29 in 10.0 mi West 5.8 mph - N/A   Clear
8:56 AM 12.0 °F - 9.0 °F 88% 30.30 in 10.0 mi Calm Calm - N/A   Clear
9:56 AM 15.1 °F 9.4 °F 10.9 °F 84% 30.31 in 10.0 mi WSW 3.5 mph - N/A   Clear
10:56 AM 19.0 °F - 15.1 °F 85% 30.31 in 10.0 mi Calm Calm - N/A   Clear
11:56 AM 28.9 °F - 23.0 °F 78% 30.29 in 10.0 mi Calm Calm - N/A   Clear
12:56 PM 35.1 °F 26.4 °F 14.0 °F 42% 30.28 in 10.0 mi West 12.7 mph - N/A   Clear
1:56 PM 36.0 °F 28.5 °F 10.0 °F 34% 30.27 in 10.0 mi West 10.4 mph - N/A   Clear
2:56 PM 37.0 °F 32.4 °F 9.0 °F 31% 30.26 in 10.0 mi Variable 5.8 mph - N/A   Clear
3:56 PM 39.0 °F 33.4 °F 9.0 °F 29% 30.25 in 10.0 mi SW 8.1 mph - N/A   Clear
4:56 PM 39.0 °F 34.0 °F 8.1 °F 28% 30.24 in 10.0 mi South 6.9 mph - N/A   Clear
5:56 PM 39.9 °F 33.4 °F 10.0 °F 29% 30.22 in 10.0 mi South 10.4 mph - N/A   Clear
6:56 PM 36.0 °F 29.6 °F 12.0 °F 37% 30.21 in 10.0 mi South 8.1 mph - N/A   Clear
7:56 PM 32.0 °F 24.8 °F 12.9 °F 45% 30.20 in 10.0 mi SE 8.1 mph - N/A   Clear
8:56 PM 30.0 °F 23.2 °F 12.9 °F 49% 30.18 in 10.0 mi SE 6.9 mph - N/A   Clear
9:56 PM 28.9 °F 23.9 °F 10.9 °F 47% 30.17 in 10.0 mi ESE 4.6 mph - N/A   Unknown
10:56 PM 28.0 °F 18.6 °F 12.0 °F 51% 30.13 in 10.0 mi SE 10.4 mph - N/A   Clear
11:56 PM 28.0 °F 20.0 °F 10.9 °F 49% 30.07 in 10.0 mi ESE 8.1 mph - N/A   Scattered Clouds